9D9-WX Weather Reports


Display with metric or nautical units.
time (UTC)temp
F
wind
direction
speed
MPH
gust
MPH
rain 1hr
in
rain 24hr
in
rain mn
in
humidity
%
barometer
mb
20260509053023 45 167 7.0 0.0 0.00 0.00 0.00 53 977.8
20260509051509 45 165 7.0 0.0 0.00 0.00 0.00 53 977.7
20260509050035 45 171 6.0 0.0 0.00 0.00 0.00 53 977.7
20260509044510 45 174 6.0 0.0 0.00 0.00 0.00 47 978.7
20260509043024 45 167 6.0 0.0 0.00 0.00 0.00 47 977.6
20260509041509 46 170 6.0 0.0 0.00 0.00 0.00 47 977.7
20260509040034 47 178 5.0 0.0 0.00 0.00 0.00 47 977.7
20260509034510 47 178 6.0 0.0 0.00 0.00 0.00 41 978.4
20260509033023 48 178 6.0 0.0 0.00 0.00 0.00 40 979.1
20260509031509 48 176 6.0 0.0 0.00 0.00 0.00 40 979.1
20260509030033 49 174 6.0 0.0 0.00 0.00 0.00 40 979.1
20260509024509 50 184 6.0 0.0 0.00 0.00 0.00 29 979.2
20260509023026 50 192 6.0 0.0 0.00 0.00 0.00 37 979.4
20260509021509 51 206 5.0 0.0 0.00 0.00 0.00 37 979.4
20260509020032 51 219 4.0 0.0 0.00 0.00 0.00 37 979.4
20260509014509 51 221 4.0 0.0 0.00 0.00 0.00 39 979.0
20260509013021 52 229 4.0 0.0 0.00 0.00 0.00 39 979.0
20260509011509 53 247 4.0 0.0 0.00 0.00 0.00 39 979.0
20260509010029 54 255 4.0 0.0 0.00 0.00 0.00 39 979.0
20260509004508 54 267 4.0 0.0 0.00 0.00 0.00 31 978.8
20260509003026 55 265 4.0 0.0 0.00 0.00 0.00 31 980.1
20260509001508 57 273 4.0 0.0 0.00 0.00 0.00 31 980.1
20260509000032 58 272 5.0 0.0 0.00 0.00 0.00 31 980.1
20260508234508 59 272 7.0 0.0 0.00 0.00 0.00 25 979.3
20260508233027 60 270 8.0 0.0 0.00 0.00 0.00 24 979.8
20260508231510 60 269 9.0 0.0 0.00 0.00 0.00 24 979.8
20260508230031 60 271 10.0 0.0 0.00 0.00 0.00 24 979.8
20260508224510 61 274 10.0 0.0 0.00 0.00 0.00 23 979.7
20260508223028 61 273 11.0 0.0 0.00 0.00 0.00 21 980.7
20260508221511 61 273 11.0 0.0 0.00 0.00 0.00 21 980.7
20260508220028 61 273 12.0 0.0 0.00 0.00 0.00 21 980.7
20260508214511 62 272 12.0 0.0 0.00 0.00 0.00 21 981.1
20260508213027 62 266 12.0 0.0 0.00 0.00 0.00 23 980.6
20260508211510 62 256 12.0 0.0 0.00 0.00 0.00 23 980.7
20260508210033 62 254 12.0 0.0 0.00 0.00 0.00 23 980.7
20260508204510 62 252 12.0 0.0 0.00 0.00 0.00 29 980.9
20260508203028 63 250 13.0 0.0 0.00 0.00 0.00 27 980.6
20260508201510 63 242 10.0 0.0 0.00 0.00 0.00 27 980.6
20260508200028 63 249 10.0 0.0 0.00 0.00 0.00 20 980.2
20260508194510 63 252 10.0 0.0 0.00 0.00 0.00 25 980.9
20260508193022 63 252 11.0 0.0 0.00 0.00 0.00 25 980.9
20260508191509 63 248 9.0 0.0 0.00 0.00 0.00 25 981.0
20260508190031 63 254 10.0 0.0 0.00 0.00 0.00 25 981.0
20260508184510 62 252 10.0 0.0 0.00 0.00 0.00 29 981.5
20260508183028 62 244 11.0 0.0 0.00 0.00 0.00 31 981.1
20260508181510 62 243 10.0 0.0 0.00 0.00 0.00 31 981.1
20260508180032 61 246 10.0 0.0 0.00 0.00 0.00 31 981.1
20260508174510 61 245 11.0 0.0 0.00 0.00 0.00 32 982.1
20260508173028 61 248 10.0 0.0 0.00 0.00 0.00 32 982.1
20260508171510 60 244 10.0 0.0 0.00 0.00 0.00 32 982.1
20260508170032 60 250 10.0 0.0 0.00 0.00 0.00 31 982.1
20260508164510 59 249 10.0 0.0 0.00 0.00 0.00 33 982.2
20260508163027 59 249 9.0 0.0 0.00 0.00 0.00 33 982.5
20260508161510 58 247 8.0 0.0 0.00 0.00 0.00 33 982.5
20260508160033 57 244 8.0 0.0 0.00 0.00 0.00 33 982.5
20260508154510 56 239 7.0 0.0 0.00 0.00 0.00 44 983.4
20260508153029 55 219 6.0 0.0 0.00 0.00 0.00 47 982.5
20260508151511 54 212 5.0 0.0 0.00 0.00 0.00 47 982.5
20260508150032 53 213 5.0 0.0 0.00 0.00 0.00 47 982.5
20260508144511 53 203 4.0 0.0 0.00 0.00 0.00 56 982.6
20260508143024 52 208 5.0 0.0 0.00 0.00 0.00 54 982.7
20260508141511 51 201 5.0 0.0 0.00 0.00 0.00 54 982.7
20260508140033 51 195 4.0 0.0 0.00 0.00 0.00 61 982.6
20260508134510 50 194 4.0 0.0 0.00 0.00 0.00 68 982.6
20260508133023 48 188 6.0 0.0 0.00 0.00 0.00 68 982.6
20260508131511 47 188 6.0 0.0 0.00 0.00 0.00 68 982.6
20260508130034 46 189 5.0 0.0 0.00 0.00 0.00 68 982.6
20260508124510 44 187 5.0 0.0 0.00 0.00 0.00 85 981.6
20260508123026 43 192 5.0 0.0 0.00 0.00 0.00 84 982.3
20260508121510 42 186 4.0 0.0 0.00 0.00 0.00 84 982.3
20260508120037 40 176 3.0 0.0 0.00 0.00 0.00 84 982.3
20260508114510 38 180 3.0 0.0 0.00 0.00 0.00 85 981.8
20260508113030 37 176 2.0 0.0 0.00 0.00 0.00 83 982.5
20260508111510 37 159 3.0 0.0 0.00 0.00 0.00 83 982.5
20260508110028 37 163 4.0 0.0 0.00 0.00 0.00 83 982.5
20260508104513 36 163 4.0 0.0 0.00 0.00 0.00 80 981.5
20260508103029 37 161 4.0 0.0 0.00 0.00 0.00 78 982.5
20260508101513 37 159 3.0 0.0 0.00 0.00 0.00 78 982.6
20260508100028 37 158 3.0 0.0 0.00 0.00 0.00 78 982.6
20260508094512 38 157 3.0 0.0 0.00 0.00 0.00 75 981.8
20260508093024 38 153 2.0 0.0 0.00 0.00 0.00 75 982.6
20260508091513 38 189 2.0 0.0 0.00 0.00 0.00 75 982.6
20260508090032 39 204 2.0 0.0 0.00 0.00 0.00 75 982.6
20260508084512 39 214 3.0 0.0 0.00 0.00 0.00 73 982.0
20260508083029 39 201 4.0 0.0 0.00 0.00 0.00 76 981.9
20260508081512 39 189 4.0 0.0 0.00 0.00 0.00 76 981.9
20260508080034 39 196 3.0 0.0 0.00 0.00 0.00 76 981.9
20260508074512 39 214 3.0 0.0 0.00 0.00 0.00 84 982.8
20260508073029 40 220 3.0 0.0 0.00 0.00 0.00 84 982.8
20260508071512 40 199 4.0 0.0 0.00 0.00 0.00 84 982.8
20260508070035 40 210 4.0 0.0 0.00 0.00 0.00 84 982.8
20260508064511 40 203 4.0 0.0 0.00 0.00 0.00 82 982.4
20260508063024 41 199 4.0 0.0 0.00 0.00 0.00 83 982.9
20260508061512 42 207 3.0 0.0 0.00 0.00 0.00 83 982.9
20260508060036 41 210 3.0 0.0 0.00 0.00 0.00 83 982.9
20260508054511 41 207 3.0 0.0 0.00 0.00 0.00 80 983.5